This is the latest recevied weather packets stored in our database for station/object WE0DX-1. If no packets are shown the sender has not sent any weather packets the latest 10 day(s).
| Time | Temp. | Humidity | Pressure | Rain* | Wind** | Luminosity | Snow |
|---|---|---|---|---|---|---|---|
| 1777742684 | 15° C | 32% | 1021.3 hPa | 0 mm | - | 762 W/m² | - |
| 1777742380 | 15.56° C | 32% | 1021.2 hPa | 0 mm | - | 818 W/m² | - |
| 1777742076 | 15° C | 33% | 1021.3 hPa | 0 mm | - | 801 W/m² | - |
| 1777741774 | 15° C | 33% | 1021.3 hPa | 0 mm | - | 804 W/m² | - |
| 1777741465 | 15° C | 33% | 1021.3 hPa | 0 mm | - | 829 W/m² | - |
| 1777741160 | 15° C | 33% | 1021.3 hPa | 0 mm | - | 844 W/m² | - |
| 1777740858 | 13.89° C | 33% | 1021.3 hPa | 0 mm | - | 851 W/m² | - |
| 1777740555 | 13.89° C | 34% | 1021.3 hPa | 0 mm | - | 851 W/m² | - |
| 1777740251 | 14.44° C | 32% | 1021.1 hPa | 0 mm | - | 868 W/m² | - |
| 1777739947 | 14.44° C | 34% | 1021.1 hPa | 0 mm | - | 885 W/m² | - |
| 1777739643 | 13.89° C | 34% | 1021.3 hPa | 0 mm | - | 857 W/m² | - |
| 1777739341 | 13.89° C | 33% | 1021.3 hPa | 0 mm | - | 851 W/m² | - |
| 1777739037 | 13.89° C | 33% | 1021.4 hPa | 0 mm | - | 864 W/m² | - |
| 1777738735 | 13.89° C | 34% | 1021.5 hPa | 0 mm | - | 859 W/m² | - |
| 1777738430 | 13.89° C | 36% | 1021.5 hPa | 0 mm | - | 834 W/m² | - |
| 1777738129 | 13.89° C | 35% | 1021.2 hPa | 0 mm | - | 789 W/m² | - |
| 1777737827 | 13.89° C | 37% | 1021.3 hPa | 0 mm | - | 772 W/m² | - |
| 1777737525 | 13.89° C | 36% | 1021.4 hPa | 0 mm | - | 733 W/m² | - |
| 1777737223 | 13.89° C | 40% | 1021.2 hPa | 0 mm | - | 757 W/m² | - |
| 1777736919 | 13.89° C | 35% | 1021.3 hPa | 0 mm | - | 774 W/m² | - |
| 1777736311 | 13.33° C | 33% | 1021.3 hPa | 0 mm | - | 712 W/m² | - |
| 1777736007 | 13.89° C | 37% | 1021.2 hPa | 0 mm | - | 678 W/m² | - |
| 1777735705 | 13.89° C | 38% | 1021.3 hPa | 0 mm | - | 633 W/m² | - |
| 1777735402 | 13.33° C | 40% | 1021.3 hPa | 0 mm | - | 617 W/m² | - |
| 1777735100 | 13.89° C | 39% | 1021.1 hPa | 0 mm | - | 637 W/m² | - |
* Rain latest hour (hover to see other rain measurements)
** Current wind speed in m/s (hover to see current wind gust speed)